This is the latest recevied weather packets stored in our database for station/object W4TJP. If no packets are shown the sender has not sent any weather packets the latest 10 day(s).
| Time | Temp. | Humidity | Pressure | Rain* | Wind** | Luminosity | Snow |
|---|---|---|---|---|---|---|---|
| 1777750411 | 13.89° C | 50% | 1015.7 hPa | 0 mm | - | 106 W/m² | - |
| 1777750107 | 15° C | 50% | 1015.4 hPa | 0 mm | - | 101 W/m² | - |
| 1777749804 | 15° C | 48% | 1015.5 hPa | 0 mm | - | 156 W/m² | - |
| 1777749501 | 14.44° C | 49% | 1015.4 hPa | 0 mm | - | 245 W/m² | - |
| 1777749199 | 15° C | 49% | 1015.3 hPa | 0 mm | - | 137 W/m² | - |
| 1777748896 | 15° C | 47% | 1015.2 hPa | 0 mm | - | 162 W/m² | - |
| 1777748593 | 15° C | 47% | 1015.3 hPa | 0 mm | - | 261 W/m² | - |
| 1777748289 | 15° C | 45% | 1015.2 hPa | 0 mm | - | 185 W/m² | - |
| 1777747985 | 15.56° C | 45% | 1015.4 hPa | 0 mm | - | 174 W/m² | - |
| 1777747682 | 15.56° C | 47% | 1015.3 hPa | 0 mm | - | 798 W/m² | - |
| 1777747377 | 16.11° C | 45% | 1015.5 hPa | 0 mm | - | 154 W/m² | - |
| 1777747074 | 17.22° C | 42% | 1015.4 hPa | 0 mm | - | 199 W/m² | - |
| 1777746770 | 17.78° C | 45% | 1015.3 hPa | 0 mm | - | 790 W/m² | - |
| 1777746465 | 17.78° C | 44% | 1015.3 hPa | 0 mm | - | 748 W/m² | - |
| 1777746161 | 16.67° C | 41% | 1015.3 hPa | 0 mm | - | 728 W/m² | - |
| 1777745858 | 15.56° C | 42% | 1015.5 hPa | 0 mm | - | 740 W/m² | - |
| 1777745558 | 15° C | 44% | 1015.4 hPa | 0 mm | - | 787 W/m² | - |
| 1777745254 | 14.44° C | 45% | 1015.6 hPa | 0 mm | - | 179 W/m² | - |
| 1777744952 | 15° C | 46% | 1015.7 hPa | 0 mm | - | 169 W/m² | - |
| 1777744651 | 16.67° C | 41% | 1015.5 hPa | 0 mm | - | 150 W/m² | - |
| 1777744346 | 16.67° C | 43% | 1015.5 hPa | 0 mm | - | 691 W/m² | - |
| 1777744044 | 16.67° C | 43% | 1015.6 hPa | 0 mm | - | 763 W/m² | - |
| 1777743741 | 16.67° C | 45% | 1015.7 hPa | 0 mm | - | 799 W/m² | - |
| 1777743438 | 16.67° C | 42% | 1015.8 hPa | 0 mm | - | 774 W/m² | - |
| 1777743135 | 17.22° C | 43% | 1015.6 hPa | 0 mm | - | 783 W/m² | - |
* Rain latest hour (hover to see other rain measurements)
** Current wind speed in m/s (hover to see current wind gust speed)